Location: ??
(35.5138°N, 139.6953°E)
Time: 14:13:01
(UTC+00:00)

STARLINK-1350 - Pass Details

Date: 07 June 2020
Orbit: 548 x 551 km, 53.0° (Epoch: 13 July)

Event Time Altitude Azimuth Distance (km) Brightness Sun altitude
Rises 11:32:01 0° 222° (SW) 2,700 7.1 -16.6°
Reaches altitude 10° 11:34:14 10° 222° (SW) 1,810 6.2 -16.9°
Maximum altitude 11:38:20 82° 135° (SE) 556 3.5 -17.5°
Drops below altitude 10° 11:42:29 10° 48° (NE) 1,820 6.3 -18.1°
Sets 11:44:43 0° 47° (NE) 2,716 7.2 -18.4°
